{"data":{"norad_id":50465,"epoch":"2026-09-20T05:29:02.961600Z","epoch_age_seconds":45342,"freshness":"FRESH","line1":"1 50465U 21131A   26263.22850650  .00000039  00000+0  28383-4 0  9994","line2":"2 50465  98.4362 338.2650 0001560 131.4157 228.7163 14.35397206248053","mean_motion":14.35397206,"eccentricity":0.000156,"inclination_deg":98.4362,"raan_deg":338.265,"arg_perigee_deg":131.4157,"mean_anomaly_deg":228.7163,"bstar":2.8383e-5,"rev_number":24805,"period_min":100.32066343593,"perigee_km":772.63100680619,"apogee_km":774.8623945208,"semimajor_km":7151.8837006635,"source":"CELESTRAK","updated_at":"2026-09-20T09:00:15.496657Z"}}